This is the latest recevied weather packets stored in our database for station/object KF0RZX-13. If no packets are shown the sender has not sent any weather packets the latest 10 day(s).
| Time | Temp. | Humidity | Pressure | Rain* | Wind** | Luminosity | Snow |
|---|---|---|---|---|---|---|---|
| 1787706461 | 22.78° C | 61% | 1025.1 hPa | 0 mm | - | - | - |
| 1787704656 | 22.78° C | 61% | 1025.1 hPa | 0 mm | - | - | - |
| 1787702851 | 22.22° C | 65% | 1025.4 hPa | 6.1 mm | - | - | - |
| 1787701046 | 22.22° C | 60% | 1025.1 hPa | 2.03 mm | - | - | - |
| 1787699241 | 23.89° C | 57% | 1025.1 hPa | 0 mm | - | - | - |
| 1787697436 | 28.89° C | 31% | 1024.4 hPa | 0 mm | - | - | - |
| 1787695631 | 30° C | 29% | 1024.4 hPa | 0 mm | - | - | - |
| 1787693826 | 31.11° C | 27% | 1024.7 hPa | 0 mm | - | - | - |
| 1787692021 | 30° C | 31% | 1024.7 hPa | 0 mm | - | - | - |
| 1787690216 | 30° C | 31% | 1025.1 hPa | 0 mm | - | - | - |
| 1787688411 | 28.89° C | 33% | 1025.1 hPa | 0 mm | - | - | - |
| 1787686606 | 28.89° C | 33% | 1025.7 hPa | 0 mm | - | - | - |
| 1787684802 | 27.78° C | 37% | 1025.7 hPa | 0 mm | - | - | - |
| 1787682996 | 27.22° C | 39% | 1026.1 hPa | 0 mm | - | - | - |
| 1787681171 | 27.22° C | 42% | 1026.8 hPa | 0 mm | - | - | - |
| 1787679368 | 26.11° C | 45% | 1026.8 hPa | 0 mm | - | - | - |
| 1787677561 | 25° C | 47% | 1027.1 hPa | 0 mm | - | - | - |
| 1787675756 | 23.89° C | 61% | 1027.1 hPa | 0 mm | - | - | - |
| 1787673953 | 22.78° C | 69% | 1027.1 hPa | 0 mm | - | - | - |
| 1787672147 | 22.22° C | 69% | 1026.8 hPa | 0 mm | - | - | - |
| 1787670341 | 22.22° C | 69% | 1026.8 hPa | 0 mm | - | - | - |
| 1787668536 | 20° C | 68% | 1026.4 hPa | 0 mm | - | - | - |
| 1787666732 | 20° C | 68% | 1026.1 hPa | - | - | - | - |
| 1787664909 | 17.22° C | 83% | 1026.1 hPa | 0 mm | - | - | - |
| 1787663103 | 16.11° C | 88% | 1025.4 hPa | 0 mm | - | - | - |
* Rain latest hour (hover to see other rain measurements)
** Current wind speed in m/s (hover to see current wind gust speed)